Cumberland, WV

2:46 PM EDT on September 21, 2017 (GMT -0400)
Greater Cumberland Regional

Weather History for KCBE - October, 2012

Change the Weather History Date:

Monday, October 8, 2012

  Actual Average (KMRB) Record (KMRB)
Temperature  
Mean Temperature 40 °F -  
Max Temperature 46 °F 68 °F 97 °F (1941)
Min Temperature 35 °F 44 °F 26 °F (1964)
Degree Days  
Heating Degree Days 24    
Moisture  
Dew Point 40 °F    
Average Humidity 98    
Maximum Humidity 100    
Minimum Humidity 81    
Precipitation  
Precipitation 0.00 in - - ()
Sea Level Pressure  
Sea Level Pressure 30.29 in    
Wind  
Wind Speed 1 mph (South)    
Max Wind Speed 8 mph    
Max Gust Speed -    
Visibility 8 miles    
Events      
Averages and records for this station are not official NWS values.
T = Trace of Precipitation, MM = Missing Value Source: NWS Daily Summary

Daily Weather History Graph

Daily Weather History Graph

Search for Another Location

Airport or City:

Trip Planner

Search our weather history database for the weather conditions in past years. The results will help you decide how hot, cold, wet, or windy it might be!

Date:

Astronomy

Oct. 08, 2012 Rise Set
Actual Time 7:18 AM EDT 6:45 PM EDT
Civil Twilight 6:51 AM EDT 7:12 PM EDT
Nautical Twilight 6:20 AM EDT 7:43 PM EDT
Astronomical Twilight 5:49 AM EDT 8:14 PM EDT
Moon No Moon Rise 2:32 PM EDT (10/8)
Length of Visible Light 12h 21m
Length of Day
11h 27m
Waning Gibbous, 46% of the Moon is Illuminated
Oct 8
Waning Gibbous
Oct 15
New
Oct 21
First Quarter
Oct 29
Full
Nov 6
Last Quarter

Hourly Weather History & Observations

Time (EDT) Temp. Windchill Dew Point Humidity Pressure Visibility Wind Dir Wind Speed Gust Speed Precip Events Conditions
12:01 AM 42.8 °F 41.1 °F 41.0 °F 93% 30.23 in 10.0 mi South 3.5 mph - N/A   Overcast
12:23 AM 42.8 °F 40.1 °F 41.0 °F 93% 30.24 in 10.0 mi South 4.6 mph - N/A   Overcast
12:44 AM 41.0 °F - 39.2 °F 93% 30.24 in 10.0 mi Calm Calm - N/A   Scattered Clouds
1:05 AM 42.8 °F - 41.0 °F 93% 30.24 in 10.0 mi Calm Calm - N/A   Mostly Cloudy
1:27 AM 41.0 °F - 41.0 °F 100% 30.24 in 10.0 mi Calm Calm - N/A   Mostly Cloudy
1:48 AM 41.0 °F - 41.0 °F 100% 30.24 in 10.0 mi Calm Calm - N/A   Scattered Clouds
2:09 AM 41.0 °F 39.0 °F 41.0 °F 100% 30.24 in 10.0 mi NW 3.5 mph - N/A   Scattered Clouds
2:31 AM 39.2 °F - 39.2 °F 100% 30.24 in 10.0 mi Calm Calm - N/A   Clear
2:52 AM 37.4 °F - 37.4 °F 100% 30.24 in 7.0 mi Calm Calm - N/A   Clear
3:13 AM 37.4 °F - 37.4 °F 100% 30.24 in 4.0 mi Calm Calm - N/A   Clear
3:35 AM 37.4 °F - 37.4 °F 100% 30.24 in 3.0 mi Calm Calm - N/A   Clear
3:56 AM 35.6 °F - 35.6 °F 100% 30.24 in 5.0 mi Calm Calm - N/A   Scattered Clouds
4:17 AM 37.4 °F - 37.4 °F 100% 30.26 in 7.0 mi Calm Calm - N/A   Clear
4:39 AM 35.6 °F - 35.6 °F 100% 30.27 in 0.2 mi Calm Calm - N/A   Overcast
5:00 AM 35.6 °F - 35.6 °F 100% 30.27 in 0.5 mi Calm Calm - N/A   Overcast
5:21 AM 35.6 °F - 35.6 °F 100% 30.27 in 0.2 mi Calm Calm - N/A   Overcast
5:43 AM 35.6 °F - 35.6 °F 100% 30.28 in 0.2 mi Calm Calm - N/A   Overcast
6:04 AM 37.4 °F - 37.4 °F 100% 30.28 in 0.5 mi Calm Calm - N/A   Overcast
6:25 AM 37.4 °F - 37.4 °F 100% 30.28 in 0.5 mi Calm Calm - N/A   Overcast
6:46 AM 37.4 °F - 37.4 °F 100% 30.30 in 0.2 mi Calm Calm - N/A   Overcast
7:08 AM 37.4 °F - 37.4 °F 100% 30.30 in 0.2 mi Calm Calm - N/A   Overcast
7:29 AM 37.4 °F - 37.4 °F 100% 30.31 in 0.5 mi Calm Calm - N/A   Overcast
7:50 AM 37.4 °F - 37.4 °F 100% 30.30 in 0.5 mi Calm Calm - N/A   Overcast
8:11 AM 37.4 °F - 37.4 °F 100% 30.31 in 5.0 mi Calm Calm - N/A   Mostly Cloudy
8:33 AM 37.4 °F - 37.4 °F 100% 30.31 in 10.0 mi Calm Calm - N/A   Scattered Clouds
8:54 AM 37.4 °F - 37.4 °F 100% 30.31 in 10.0 mi Calm Calm - N/A   Clear
9:15 AM 37.4 °F - 37.4 °F 100% 30.32 in 10.0 mi Calm Calm - N/A   Clear
9:36 AM 39.2 °F - 39.2 °F 100% 30.32 in 10.0 mi Calm Calm - N/A   Clear
9:58 AM 41.0 °F - 41.0 °F 100% 30.30 in 10.0 mi Calm Calm - N/A   Clear
10:19 AM 41.0 °F - 41.0 °F 100% 30.32 in 10.0 mi Calm Calm - N/A   Clear
10:40 AM 41.0 °F - 41.0 °F 100% 30.32 in 10.0 mi Calm Calm - N/A   Clear
11:01 AM 42.8 °F - 42.8 °F 100% 30.32 in 10.0 mi Calm Calm - N/A   Clear
11:23 AM 42.8 °F - 42.8 °F 100% 30.33 in 10.0 mi Calm Calm - N/A   Clear
11:44 AM 44.6 °F - 42.8 °F 93% 30.33 in 10.0 mi Calm Calm - N/A   Clear
12:05 PM 44.6 °F 43.1 °F 42.8 °F 93% 30.33 in 10.0 mi SE 3.5 mph - N/A   Clear
12:26 PM 44.6 °F - 41.0 °F 87% 30.32 in 10.0 mi Calm Calm - N/A   Clear
12:48 PM 44.6 °F 42.2 °F 41.0 °F 87% 30.32 in 10.0 mi SSE 4.6 mph - N/A   Clear
1:09 PM 46.4 °F 45.2 °F 41.0 °F 81% 30.32 in 10.0 mi SSE 3.5 mph - N/A   Clear
1:30 PM 46.4 °F 43.5 °F 41.0 °F 81% 30.32 in 10.0 mi South 5.8 mph - N/A   Mostly Cloudy
1:52 PM 44.6 °F 40.7 °F 41.0 °F 87% 30.32 in 10.0 mi South 6.9 mph - N/A   Overcast
2:13 PM 42.8 °F 41.1 °F 41.0 °F 93% 30.32 in 7.0 mi South 3.5 mph - N/A   Overcast
2:34 PM 42.8 °F 38.6 °F 42.8 °F 100% 30.33 in 7.0 mi South 6.9 mph - N/A   Overcast
2:55 PM 42.8 °F 38.0 °F 41.0 °F 93% 30.32 in 7.0 mi South 8.1 mph - N/A   Overcast
3:17 PM 42.8 °F 38.0 °F 41.0 °F 93% 30.32 in 10.0 mi South 8.1 mph - N/A   Overcast
3:38 PM 42.8 °F 40.1 °F 41.0 °F 93% 30.32 in 7.0 mi South 4.6 mph - N/A   Overcast
3:59 PM 42.8 °F 39.3 °F 41.0 °F 93% 30.32 in 10.0 mi SSE 5.8 mph - N/A   Overcast
4:20 PM 41.0 °F 38.0 °F 41.0 °F 100% 30.32 in 10.0 mi South 4.6 mph - N/A   Overcast
4:42 PM 41.0 °F 38.0 °F 41.0 °F 100% 30.32 in 7.0 mi South 4.6 mph - N/A   Overcast
5:03 PM 41.0 °F 39.0 °F 41.0 °F 100% 30.31 in 7.0 mi South 3.5 mph - N/A   Overcast
5:24 PM 41.0 °F - 41.0 °F 100% 30.31 in 10.0 mi Calm Calm - N/A   Overcast
5:45 PM 41.0 °F - 41.0 °F 100% 30.31 in 10.0 mi Calm Calm - N/A   Overcast
6:07 PM 41.0 °F - 41.0 °F 100% 30.30 in 10.0 mi Calm Calm - N/A   Mostly Cloudy
6:49 PM 41.0 °F - 41.0 °F 100% 30.29 in 10.0 mi Calm Calm - N/A   Mostly Cloudy
7:10 PM 41.0 °F - 41.0 °F 100% 30.29 in 10.0 mi Calm Calm - N/A   Mostly Cloudy
7:32 PM 41.0 °F - 41.0 °F 100% 30.28 in 10.0 mi Calm Calm - N/A   Mostly Cloudy
7:53 PM 41.0 °F - 41.0 °F 100% 30.28 in 10.0 mi Calm Calm - N/A   Scattered Clouds
8:14 PM 41.0 °F - 41.0 °F 100% 30.28 in 10.0 mi Calm Calm - N/A   Mostly Cloudy
8:35 PM 41.0 °F - 41.0 °F 100% 30.28 in 10.0 mi Calm Calm - N/A   Mostly Cloudy
8:57 PM 41.0 °F - 41.0 °F 100% 30.28 in 10.0 mi Calm Calm - N/A   Mostly Cloudy
9:18 PM 41.0 °F - 41.0 °F 100% 30.28 in 10.0 mi Calm Calm - N/A   Overcast
9:39 PM 41.0 °F - 41.0 °F 100% 30.29 in 10.0 mi Calm Calm - N/A   Overcast
10:00 PM 41.0 °F - 41.0 °F 100% 30.29 in 10.0 mi Calm Calm - N/A   Overcast
10:22 PM 41.0 °F - 41.0 °F 100% 30.29 in 10.0 mi Calm Calm - N/A   Mostly Cloudy
10:43 PM 41.0 °F - 41.0 °F 100% 30.28 in 10.0 mi Calm Calm - N/A   Mostly Cloudy
11:04 PM 41.0 °F - 41.0 °F 100% 30.29 in 7.0 mi Calm Calm - N/A   Overcast
11:26 PM 41.0 °F - 41.0 °F 100% 30.28 in 10.0 mi Calm Calm - N/A   Overcast
11:47 PM 41.0 °F - 41.0 °F 100% 30.28 in 5.0 mi Calm Calm - N/A   Overcast